Zurück zum Katalog

DELTA 1 DEB

AktivLEO
NORAD 19429·DEBRIS·🇺🇸 United States

Gestartet Jul 14, 1977 von Cape Canaveral Space Force Station

Loading…

Nächste Überflüge (nächste 24 Stunden)

TLE

AktuellSource: Space-Track

Epoche: Sep 13, 2026, 09:37 UTC

1 19429U 77065GB  26256.40108209  .00006380  00000-0  67714-3 0  9990
2 19429  29.1038 304.0486 0357745 325.1771  32.5885 14.50193059899501

Verfolge DELTA 1 DEB in Echtzeit mit AllMySat

Download on the App Store